Weather History for Toronto City ON, Ontario

Change the Weather History Date:

Sunday, June 23, 2013

  Actual Average Record
Temperature  
Mean Temperature 78 °F -  
Max Temperature 89 °F - - ()
Min Temperature 66 °F - - ()
Cooling Degree Days 12    
Growing Degree Days 28 (Base 50)    
Moisture  
Dew Point 66 °F    
Average Humidity 71    
Maximum Humidity 93    
Minimum Humidity 46    
Precipitation  
Precipitation 0.00 in - - ()
Sea Level Pressure  
Sea Level Pressure 30.01 in    
Wind  
Wind Speed - ()    
Max Wind Speed -    
Max Gust Speed -    
T = Trace of Precipitation, MM = Missing Value Source: Averaged Metar Reports

Daily Weather History Graph

Daily Weather History Graph

Search for Another Location

Airport:

Trip Planner

Search our weather history database for the weather conditions in past years. The results will help you decide how hot, cold, wet, or windy it might be!

Date:

Astronomy

Jun. 23, 2013 Rise Set
Actual Time 5:36 AM EDT 9:03 PM EDT
Civil Twilight 5:00 AM EDT 9:39 PM EDT
Nautical Twilight 4:13 AM EDT 10:26 PM EDT
Astronomical Twilight 3:13 AM EDT 11:25 PM EDT
Moon 9:10 PM EDT (6/23) 5:54 AM EDT (6/23)
Length of Visible Light 16h 38m
Length of Day
15h 26m
Full, 100% of the Moon is Illuminated
Jun 23
Full
Jun 30
Last Quarter
Jul 8
New
Jul 15
First Quarter
Jul 22
Full

Hourly Weather History & Observations

Time (EDT) Temp. Heat Index Dew Point Humidity Pressure Visibility Wind Dir Wind Speed Gust Speed Precip Events Conditions
12:00 AM 71.8 °F - 66.7 °F 84% 30.04 in - North - - N/A   Unknown
1:00 AM 72.0 °F - 66.4 °F 83% 30.05 in - North - - N/A   Unknown
2:00 AM 67 °F - 63 °F 83% 30.04 in - Calm Calm - -  
2:00 AM 66.6 °F - 63.1 °F 89% 30.04 in - North - - N/A   Unknown
3:00 AM 67.3 °F - 64.2 °F 90% 30.02 in - North - - N/A   Unknown
4:00 AM 67.3 °F - 64.6 °F 91% 30.02 in - North - - N/A   Unknown
5:00 AM 66.9 °F - 64.6 °F 92% 30.03 in - North - - N/A   Unknown
6:00 AM 66.6 °F - 64.4 °F 93% 30.04 in - North - - N/A   Unknown
7:00 AM 68.0 °F - 64.8 °F 89% 30.05 in - North - - N/A   Unknown
8:00 AM 69 °F - 65 °F 84% 30.05 in - Calm Calm - -  
8:00 AM 69.4 °F - 65.1 °F 86% 30.05 in - North - - N/A   Unknown
9:00 AM 72.3 °F - 66.2 °F 81% 30.06 in - North - - N/A   Unknown
10:00 AM 75.9 °F - 67.6 °F 75% 30.05 in - North - - N/A   Unknown
11:00 AM 78.4 °F - 68.5 °F 72% 30.04 in - North - - N/A   Unknown
12:00 PM 81.7 °F 85.4 °F 70.0 °F 68% 30.04 in - North - - N/A   Unknown
1:00 PM 84.2 °F 89.0 °F 70.9 °F 64% 30.02 in - North - - N/A   Unknown
2:00 PM 86 °F - 68 °F 46% 30.01 in - Calm Calm - -  
2:00 PM 85.6 °F 89.1 °F 68.2 °F 56% 30.01 in - North - - N/A   Unknown
3:00 PM 85.6 °F 87.9 °F 66.4 °F 52% 30.00 in - North - - N/A   Unknown
4:00 PM 87.4 °F 89.1 °F 64.8 °F 47% 29.97 in - North - - N/A   Unknown
5:00 PM 86.7 °F 88.7 °F 65.7 °F 49% 29.96 in - North - - N/A   Unknown
6:00 PM 86.9 °F 89.9 °F 67.5 °F 52% 29.95 in - North - - N/A   Unknown
7:00 PM 82.4 °F 83.5 °F 63.3 °F 52% 29.96 in - North - - N/A   Unknown
8:00 PM 86 °F - 69 °F 47% 29.96 in - Calm Calm - -  
8:00 PM 85.8 °F 89.4 °F 68.5 °F 56% 29.96 in - North - - N/A   Unknown
9:00 PM 80.1 °F 82.0 °F 65.7 °F 61% 29.96 in - North - - N/A   Unknown
10:00 PM 78.1 °F - 67.3 °F 69% 29.98 in - North - - N/A   Unknown
11:00 PM 79.5 °F - 67.5 °F 66% 29.98 in - North - - N/A   Unknown